Location: PSU-Greenbush Astrophysical Observatory
(37.5140°N, 94.9880°W)
Time: 09:22:55
(UTC-06:00)

Altair - Pass Details

Date: 29 January 2020
Orbit: 1502 x 1682 km, 47.2° (Epoch: 25 February)

Event Time Altitude Azimuth Distance (km) Brightness Sun altitude
Rises 12:11:22 0° 296° (WNW) 4,929 9.9 34.3°
Reaches altitude 10° 12:14:38 10° 300° (WNW) 3,946 9.4 34.4°
Maximum altitude 12:24:41 60° 19° (NNE) 1,878 8.1 34.5°
Drops below altitude 10° 12:34:34 10° 98° (E) 3,888 9.8 34.6°
Sets 12:37:45 0° 103° (ESE) 4,854 10.2 34.6°
